| time (UTC) | temp C | wind direction | speed KPH | gust KPH | rain 1hr cm | rain 24hr cm | rain mn cm | humidity % | barometer mb |
| 20260508103051 | 8 | 135 | 0.0 | 1.6 | 0.00 | 0.00 | 0.00 | ||
| 20260508100059 | 8 | 135 | 0.0 | 1.6 | 0.00 | 0.00 | 0.00 | ||
| 20260508093038 | 8 | 138 | 0.0 | 0.0 | 0.00 | 0.00 | 0.00 | ||
| 20260508083047 | 8 | 171 | 0.0 | 0.0 | 0.00 | 0.00 | 0.00 | ||
| 20260508080056 | 8 | 171 | 0.0 | 0.0 | 0.00 | 0.00 | 0.00 | ||
| 20260508073038 | 8 | 171 | 0.0 | 0.0 | 0.00 | 0.00 | 0.00 | ||
| 20260508070107 | 8 | 171 | 0.0 | 0.0 | 0.00 | 0.00 | 0.00 | ||
| 20260508063046 | 8 | 136 | 0.0 | 0.0 | 0.00 | 0.00 | 0.00 | ||
| 20260508060057 | 9 | 136 | 0.0 | 1.6 | 0.00 | 0.00 | 0.00 | ||
| 20260508053038 | 9 | 154 | 0.0 | 0.0 | 0.00 | 0.00 | 0.00 | ||
| 20260508050106 | 9 | 174 | 0.0 | 1.6 | 0.00 | 0.00 | 0.00 | ||
| 20260508043046 | 10 | 231 | 0.0 | 0.0 | 0.00 | 0.00 | 0.00 | ||
| 20260508033032 | 11 | 222 | 0.0 | 4.8 | 0.00 | 0.00 | 0.00 | ||
| 20260508030058 | 11 | 240 | 0.0 | 3.2 | 0.00 | 0.00 | 0.00 | ||
| 20260508023039 | 12 | 213 | 0.0 | 8.0 | 0.00 | 0.00 | 0.00 | ||
| 20260508020110 | 12 | 279 | 1.6 | 8.0 | 0.00 | 0.00 | 0.00 | ||
| 20260508010100 | 13 | 272 | 3.2 | 12.9 | 0.00 | 0.00 | 0.00 | ||
| 20260508003042 | 14 | 250 | 3.2 | 11.3 | 0.00 | 0.00 | 0.00 | ||
| 20260508000052 | 15 | 237 | 3.2 | 11.3 | 0.00 | 0.00 | 0.00 | ||
| 20260507233034 | 16 | 304 | 3.2 | 11.3 | 0.00 | 0.00 | 0.00 | ||
| 20260507230104 | 16 | 260 | 3.2 | 9.7 | 0.00 | 0.00 | 0.00 | ||
| 20260507223042 | 16 | 246 | 6.4 | 14.5 | 0.00 | 0.00 | 0.00 | ||
| 20260507220054 | 17 | 211 | 1.6 | 16.1 | 0.00 | 0.00 | 0.00 | ||
| 20260507210046 | 16 | 218 | 1.6 | 11.3 | 0.00 | 0.00 | 0.00 | ||
| 20260507203050 | 16 | 265 | 3.2 | 11.3 | 0.00 | 0.00 | 0.00 | ||
| 20260507200059 | 16 | 357 | 3.2 | 8.0 | 0.00 | 0.00 | 0.00 | ||
| 20260507193037 | 15 | 244 | 0.0 | 9.7 | 0.00 | 0.00 | 0.00 | ||
| 20260507190100 | 15 | 208 | 3.2 | 11.3 | 0.00 | 0.00 | 0.00 | ||
| 20260507180050 | 14 | 170 | 1.6 | 6.4 | 0.00 | 0.00 | 0.00 | ||
| 20260507173047 | 14 | 253 | 1.6 | 4.8 | 0.00 | 0.00 | 0.00 | ||
| 20260507170057 | 13 | 327 | 1.6 | 9.7 | 0.00 | 0.00 | 0.00 | ||
| 20260507163037 | 13 | 231 | 1.6 | 6.4 | 0.00 | 0.00 | 0.00 | ||
| 20260507160108 | 13 | 190 | 0.0 | 4.8 | 0.00 | 0.00 | 0.00 | ||
| 20260507153046 | 13 | 168 | 1.6 | 6.4 | 0.00 | 0.00 | 0.00 | ||
| 20260507150056 | 15 | 270 | 1.6 | 4.8 | 0.00 | 0.00 | 0.00 | ||
| 20260507140106 | 13 | 285 | 0.0 | 3.2 | 0.00 | 0.00 | 0.00 | ||
| 20260507133044 | 9 | 292 | 0.0 | 0.0 | 0.00 | 0.00 | 0.00 | ||
| 20260507123053 | 9 | 292 | 0.0 | 0.0 | 0.00 | 0.00 | 0.00 | ||
| 20260507113041 | 9 | 251 | 0.0 | 1.6 | 0.00 | 0.00 | 0.00 | ||
| 20260507110051 | 10 | 251 | 0.0 | 1.6 | 0.00 | 0.00 | 0.00 |